Crystal Mt.
Crystal Mt. - Green Valley & Campbell Basin
Latest observation 09/03 17:00 PDT
| Time (PDT) | Temp °F 6230' | Temp °F 5940' | RH 6230' | 24Sno in 6230' | SnoHt in 6230' | 24Sno in 5940' | SnoHt in 5940' |
|---|---|---|---|---|---|---|---|
| 09/03 17:00 | – | 40 | – | – | – | 0.2 | 2.3 |
| 09/03 16:00 | – | 46 | – | – | – | 0.1 | 1.7 |
| 09/03 15:00 | – | 44 | – | – | – | 0.1 | 1.3 |
| 09/03 14:00 | – | 44 | – | – | – | 0.2 | 1.2 |
| 09/03 13:00 | – | 40 | – | – | – | 0.2 | 1.6 |
| 09/03 12:00 | – | 39 | – | – | – | 0.2 | 1.5 |
| 09/03 11:00 | – | 40 | – | – | – | 0.2 | 1.5 |
| 09/03 10:00 | – | 37 | – | – | – | 0.3 | 1.4 |
| 09/03 09:00 | – | 37 | – | – | – | 0.3 | 1.7 |
| 09/03 08:00 | – | 37 | – | – | – | 0.3 | 1.4 |
| 09/03 07:00 | – | 36 | – | – | – | 0.3 | 1.4 |
| 09/03 06:00 | – | 35 | – | – | – | 0.3 | 1.9 |
| 09/03 05:00 | – | 35 | – | – | – | 0.3 | 1.4 |
| 09/03 04:00 | – | 35 | – | – | – | 0.4 | 2.1 |
| 09/03 03:00 | – | 33 | – | – | – | 0.3 | 2.1 |
| 09/03 02:00 | – | 35 | – | – | – | 0.3 | 2.0 |
| 09/03 01:00 | – | 34 | – | – | – | 0.3 | 2.1 |
| 09/03 00:00 | – | 34 | – | – | – | 0.3 | 2.3 |
| 09/02 23:00 | – | 37 | – | – | – | 0.3 | 2.1 |
| 09/02 22:00 | – | 37 | – | – | – | 0.3 | 2.5 |
| 09/02 21:00 | – | 39 | – | – | – | 0.4 | 3.2 |
| 09/02 20:00 | – | 41 | – | – | – | 0.3 | 3.8 |
| 09/02 19:00 | – | 41 | – | – | – | 0.3 | 3.9 |
| 09/02 18:00 | – | 41 | – | – | – | 0.3 | 3.7 |

